When you browse on this site, cookies collect data to enhance your experience and personalize the content and advertising you see.
Visit our Privacy Policy to learn more. By continuing to use the site, you agree to this use of cookies and data.

Previsão horária em Gafanha da Nazaré

Hoje, 29 Setembro, Terça-feira

Tempo Temperatura Precipitação Vento Pressão Humidade
00:00 +18°C° 0 mm 1 m/s 762 mmHg 64%
01:00 +16°C° 0 mm 1 m/s 761 mmHg 64%
02:00 +16°C° 0 mm 1 m/s 761 mmHg 64%
03:00 +16°C° 0 mm 1 m/s 761 mmHg 63%
04:00 +16°C° 0 mm 2 m/s 762 mmHg 63%
05:00 +15°C° 0 mm 2 m/s 762 mmHg 62%
06:00 +19°C° 0 mm 1 m/s 762 mmHg 55%
07:00 +21°C° 0 mm 1 m/s 762 mmHg 47%
08:00 +23°C° 0 mm 1 m/s 762 mmHg 40%
09:00 +25°C° 0 mm 2 m/s 762 mmHg 37%
10:00 +26°C° 0 mm 3 m/s 762 mmHg 35%
11:00 +28°C° 0 mm 4 m/s 762 mmHg 33%
12:00 +27°C° 0 mm 4 m/s 762 mmHg 36%
13:00 +27°C° 0 mm 5 m/s 761 mmHg 39%
14:00 +26°C° 0 mm 5 m/s 761 mmHg 42%
15:00 +23°C° 0 mm 5 m/s 761 mmHg 48%
16:00 +21°C° 0 mm 5 m/s 761 mmHg 55%
17:00 +20°C° 0 mm 5 m/s 761 mmHg 61%
18:00 +19°C° 0 mm 5 m/s 762 mmHg 67%
19:00 +17°C° 0 mm 5 m/s 762 mmHg 73%
20:00 +16°C° 0 mm 5 m/s 762 mmHg 79%
21:00 +15°C° 0 mm 5 m/s 762 mmHg 80%
22:00 +15°C° 0 mm 5 m/s 762 mmHg 82%
23:00 +15°C° 0 mm 4 m/s 762 mmHg 83%

Amanhã, 30 Setembro, Quarta-feira

Tempo Temperatura Precipitação Vento Pressão Humidade
00:00 +15°C° 0 mm 4 m/s 762 mmHg 83%
01:00 +15°C° 0 mm 4 m/s 762 mmHg 84%
02:00 +14°C° 0 mm 4 m/s 761 mmHg 84%
03:00 +14°C° 0 mm 4 m/s 762 mmHg 84%
04:00 +14°C° 0 mm 4 m/s 762 mmHg 84%
05:00 +14°C° 0 mm 4 m/s 762 mmHg 85%
06:00 +17°C° 0 mm 4 m/s 762 mmHg 80%
07:00 +18°C° 0 mm 4 m/s 762 mmHg 76%
08:00 +20°C° 0 mm 5 m/s 762 mmHg 71%
09:00 +20°C° 0 mm 5 m/s 762 mmHg 67%
10:00 +21°C° 0 mm 5 m/s 762 mmHg 62%
11:00 +22°C° 0 mm 5 m/s 762 mmHg 57%
12:00 +22°C° 0 mm 5 m/s 762 mmHg 57%
13:00 +21°C° 0 mm 5 m/s 762 mmHg 57%
14:00 +21°C° 0 mm 6 m/s 761 mmHg 57%
15:00 +20°C° 0 mm 5 m/s 761 mmHg 62%
16:00 +19°C° 0 mm 5 m/s 761 mmHg 68%
17:00 +18°C° 0 mm 4 m/s 761 mmHg 73%
18:00 +17°C° 0 mm 4 m/s 762 mmHg 79%
19:00 +16°C° 0 mm 3 m/s 762 mmHg 84%
20:00 +16°C° 0 mm 2 m/s 762 mmHg 90%
21:00 +16°C° 0 mm 2 m/s 762 mmHg 89%
22:00 +16°C° 0 mm 1 m/s 762 mmHg 87%
23:00 +18°C° 0 mm 1 m/s 761 mmHg 86%

Depois de amanhã, 1 Outubro, Quinta-feira

Tempo Temperatura Precipitação Vento Pressão Humidade
00:00 +18°C° 0 mm 1 m/s 761 mmHg 85%
01:00 +17°C° 0 mm 2 m/s 761 mmHg 85%
02:00 +17°C° 0 mm 2 m/s 760 mmHg 84%
03:00 +17°C° 0.3 mm 2 m/s 760 mmHg 86%
04:00 +17°C° 0.3 mm 2 m/s 760 mmHg 89%
05:00 +17°C° 0.3 mm 2 m/s 760 mmHg 92%
06:00 +17°C° 0 mm 2 m/s 760 mmHg 88%
07:00 +18°C° 0 mm 2 m/s 760 mmHg 84%
08:00 +19°C° 0 mm 2 m/s 760 mmHg 80%
09:00 +20°C° 0 mm 2 m/s 760 mmHg 72%
10:00 +21°C° 0 mm 3 m/s 760 mmHg 64%
11:00 +22°C° 0 mm 3 m/s 760 mmHg 57%
12:00 +22°C° 0 mm 3 m/s 759 mmHg 57%
13:00 +22°C° 0 mm 4 m/s 759 mmHg 57%
14:00 +22°C° 0 mm 5 m/s 758 mmHg 58%
15:00 +21°C° 0.1 mm 5 m/s 758 mmHg 67%
16:00 +20°C° 0.1 mm 5 m/s 758 mmHg 76%
17:00 +17°C° 0.1 mm 5 m/s 758 mmHg 85%
18:00 +17°C° 0.1 mm 5 m/s 758 mmHg 84%
19:00 +17°C° 0.1 mm 5 m/s 758 mmHg 83%
20:00 +17°C° 0.1 mm 4 m/s 758 mmHg 81%
21:00 +16°C° 0.1 mm 5 m/s 757 mmHg 84%
22:00 +17°C° 0.1 mm 6 m/s 756 mmHg 86%
23:00 +17°C° 0.1 mm 7 m/s 755 mmHg 88%

2 Outubro, Sexta-feira

Tempo Temperatura Precipitação Vento Pressão Humidade
00:00 +17°C° 0.6 mm 7 m/s 754 mmHg 88%
01:00 +18°C° 0.6 mm 8 m/s 753 mmHg 88%
02:00 +18°C° 0.6 mm 8 m/s 752 mmHg 88%
03:00 +18°C° 0.9 mm 9 m/s 752 mmHg 88%
04:00 +17°C° 0.9 mm 9 m/s 752 mmHg 89%
05:00 +17°C° 0.9 mm 10 m/s 751 mmHg 90%
06:00 +17°C° 0.4 mm 10 m/s 752 mmHg 84%
07:00 +16°C° 0.4 mm 10 m/s 752 mmHg 78%
08:00 +16°C° 0.4 mm 9 m/s 752 mmHg 72%
09:00 +16°C° 0.1 mm 10 m/s 753 mmHg 65%
10:00 +17°C° 0.1 mm 10 m/s 753 mmHg 58%
11:00 +17°C° 0.1 mm 10 m/s 753 mmHg 51%
12:00 +17°C° 0.2 mm 10 m/s 753 mmHg 52%
13:00 +17°C° 0.2 mm 10 m/s 753 mmHg 54%
14:00 +16°C° 0.2 mm 10 m/s 753 mmHg 55%
15:00 +14°C° 0.5 mm 10 m/s 753 mmHg 61%
16:00 +13°C° 0.5 mm 9 m/s 754 mmHg 67%
17:00 +13°C° 0.5 mm 9 m/s 754 mmHg 73%
18:00 +12°C° 0.3 mm 9 m/s 755 mmHg 75%
19:00 +12°C° 0.3 mm 8 m/s 755 mmHg 76%
20:00 +11°C° 0.3 mm 7 m/s 755 mmHg 78%
21:00 +11°C° 0.2 mm 7 m/s 756 mmHg 78%
22:00 +11°C° 0.2 mm 7 m/s 756 mmHg 78%
23:00 +11°C° 0.2 mm 7 m/s 756 mmHg 78%

3 Outubro, Sábado

Tempo Temperatura Precipitação Vento Pressão Humidade
00:00 +11°C° 0.2 mm 7 m/s 756 mmHg 78%
01:00 +11°C° 0.2 mm 7 m/s 756 mmHg 78%
02:00 +12°C° 0.2 mm 7 m/s 756 mmHg 77%
03:00 +12°C° 0.2 mm 7 m/s 756 mmHg 77%
04:00 +12°C° 0.2 mm 7 m/s 756 mmHg 77%
05:00 +12°C° 0.2 mm 7 m/s 757 mmHg 78%
06:00 +14°C° 0.1 mm 7 m/s 757 mmHg 74%
07:00 +13°C° 0.1 mm 8 m/s 757 mmHg 70%
08:00 +15°C° 0.1 mm 8 m/s 757 mmHg 66%
09:00 +16°C° 0.1 mm 8 m/s 757 mmHg 63%
10:00 +16°C° 0.1 mm 8 m/s 757 mmHg 60%
11:00 +17°C° 0.1 mm 8 m/s 757 mmHg 57%
12:00 +16°C° 0.1 mm 7 m/s 757 mmHg 57%
13:00 +16°C° 0.1 mm 7 m/s 757 mmHg 58%
14:00 +16°C° 0.1 mm 7 m/s 757 mmHg 59%
15:00 +16°C° 0.1 mm 7 m/s 757 mmHg 62%
16:00 +15°C° 0.1 mm 6 m/s 758 mmHg 65%
17:00 +15°C° 0.1 mm 5 m/s 758 mmHg 68%
18:00 +14°C° 0 mm 5 m/s 758 mmHg 72%
19:00 +13°C° 0 mm 4 m/s 758 mmHg 76%
20:00 +13°C° 0 mm 4 m/s 759 mmHg 79%
21:00 +13°C° 0 mm 3 m/s 758 mmHg 81%
22:00 +13°C° 0 mm 3 m/s 758 mmHg 82%
23:00 +13°C° 0 mm 3 m/s 758 mmHg 84%

4 Outubro, Domingo

Tempo Temperatura Precipitação Vento Pressão Humidade
00:00 +13°C° 0.1 mm 4 m/s 757 mmHg 84%
01:00 +14°C° 0.1 mm 4 m/s 757 mmHg 84%
02:00 +14°C° 0.1 mm 5 m/s 756 mmHg 84%
03:00 +14°C° 1 mm 5 m/s 756 mmHg 88%
04:00 +15°C° 1 mm 5 m/s 756 mmHg 92%
05:00 +15°C° 1 mm 6 m/s 756 mmHg 95%
06:00 +16°C° 0.3 mm 6 m/s 756 mmHg 90%
07:00 +17°C° 0.3 mm 7 m/s 756 mmHg 84%
08:00 +17°C° 0.3 mm 8 m/s 757 mmHg 79%
09:00 +18°C° 0.1 mm 8 m/s 757 mmHg 72%
10:00 +18°C° 0.1 mm 7 m/s 757 mmHg 64%
11:00 +20°C° 0.1 mm 7 m/s 758 mmHg 57%
12:00 +20°C° 0 mm 7 m/s 758 mmHg 56%
13:00 +20°C° 0 mm 7 m/s 758 mmHg 56%
14:00 +20°C° 0 mm 7 m/s 758 mmHg 55%
15:00 +18°C° 0 mm 7 m/s 758 mmHg 60%
16:00 +17°C° 0 mm 6 m/s 758 mmHg 66%
17:00 +16°C° 0 mm 6 m/s 759 mmHg 72%
18:00 +15°C° 0.1 mm 6 m/s 759 mmHg 76%
19:00 +15°C° 0.1 mm 6 m/s 760 mmHg 80%
20:00 +14°C° 0.1 mm 5 m/s 760 mmHg 84%
21:00 +14°C° 0 mm 5 m/s 761 mmHg 84%
22:00 +14°C° 0 mm 5 m/s 761 mmHg 83%
23:00 +14°C° 0 mm 5 m/s 761 mmHg 82%
Mostrar mais